Time,TemperatureF,DewpointF,PressureIn,WindDirection,WindDirectionDegrees,WindSpeedMPH,WindSpeedGustMPH,Humidity,HourlyPrecipIn,Conditions,Clouds,dailyrainin,SoftwareType,DateUTC
2013-09-22 00:03:00,56.8,52.0,29.72,SSE,157,0.0,0.0,84,0.00,,,0.00,WUHU21623XXSP,2013-09-22 07:03:00,
2013-09-22 00:08:00,57.0,51.9,29.71,SSE,157,0.0,0.0,83,0.00,,,0.00,WUHU21623XXSP,2013-09-22 07:08:00,
2013-09-22 00:13:00,57.0,51.9,29.71,SSE,157,0.0,0.0,83,0.00,,,0.00,WUHU21623XXSP,2013-09-22 07:13:00,
2013-09-22 00:18:00,57.0,51.9,29.71,South,180,0.0,0.0,83,0.00,,,0.00,WUHU21623XXSP,2013-09-22 07:18:00,
2013-09-22 00:23:00,57.0,51.9,29.72,East,90,0.0,0.0,83,0.00,,,0.00,WUHU21623XXSP,2013-09-22 07:23:00,
2013-09-22 00:28:00,57.4,52.2,29.72,SSE,157,0.0,0.0,83,0.00,,,0.00,WUHU21623XXSP,2013-09-22 07:28:00,
2013-09-22 00:33:00,57.4,52.2,29.72,SE,135,0.0,0.0,83,0.00,,,0.00,WUHU21623XXSP,2013-09-22 07:33:00,
2013-09-22 00:38:00,57.4,51.9,29.72,SSE,157,0.0,0.0,82,0.00,,,0.00,WUHU21623XXSP,2013-09-22 07:38:00,
2013-09-22 00:43:00,57.4,51.9,29.72,SE,135,0.0,0.0,82,0.00,,,0.00,WUHU21623XXSP,2013-09-22 07:43:00,
2013-09-22 00:48:00,57.4,51.9,29.72,SE,135,0.0,0.0,82,0.00,,,0.00,WUHU21623XXSP,2013-09-22 07:48:00,
2013-09-22 00:53:00,57.4,51.9,29.72,SE,135,0.0,0.0,82,0.00,,,0.00,WUHU21623XXSP,2013-09-22 07:53:00,
2013-09-22 00:58:00,57.4,51.9,29.72,SSE,157,0.0,0.0,82,0.00,,,0.00,WUHU21623XXSP,2013-09-22 07:58:00,
2013-09-22 01:03:00,57.4,51.9,29.72,SE,135,0.0,0.0,82,0.00,,,0.00,WUHU21623XXSP,2013-09-22 08:03:00,
2013-09-22 01:10:00,57.4,51.9,29.72,SE,135,0.0,0.0,82,0.00,,,0.00,WUHU21623XXSP,2013-09-22 08:10:00,
2013-09-22 01:15:00,57.6,52.4,29.72,SSE,157,0.0,0.0,83,0.00,,,0.00,WUHU21623XXSP,2013-09-22 08:15:00,
2013-09-22 01:20:00,57.6,52.4,29.71,ESE,112,0.0,0.0,83,0.00,,,0.00,WUHU21623XXSP,2013-09-22 08:20:00,
2013-09-22 01:25:00,57.6,52.4,29.71,SE,135,0.0,0.0,83,0.00,,,0.00,WUHU21623XXSP,2013-09-22 08:25:00,
2013-09-22 01:30:00,57.6,52.4,29.71,SSE,157,0.0,0.0,83,0.00,,,0.00,WUHU21623XXSP,2013-09-22 08:30:00,
2013-09-22 01:35:00,57.6,52.4,29.71,ESE,112,0.0,0.0,83,0.00,,,0.00,WUHU21623XXSP,2013-09-22 08:35:00,
2013-09-22 01:40:00,57.6,52.4,29.71,SSW,202,0.0,0.0,83,0.00,,,0.00,WUHU21623XXSP,2013-09-22 08:40:00,
2013-09-22 01:45:00,57.6,52.4,29.71,SSE,157,0.0,0.0,83,0.00,,,0.00,WUHU21623XXSP,2013-09-22 08:45:00,
2013-09-22 01:50:00,57.4,51.9,29.71,SE,135,0.0,0.0,82,0.00,,,0.00,WUHU21623XXSP,2013-09-22 08:50:00,
2013-09-22 01:55:00,57.4,51.9,29.71,SE,135,0.0,0.0,82,0.00,,,0.00,WUHU21623XXSP,2013-09-22 08:55:00,
2013-09-22 02:00:00,57.4,51.9,29.72,South,180,0.0,0.0,82,0.00,,,0.00,WUHU21623XXSP,2013-09-22 09:00:00,
2013-09-22 02:05:00,57.4,51.9,29.72,South,180,0.0,0.0,82,0.00,,,0.00,WUHU21623XXSP,2013-09-22 09:05:00,
2013-09-22 02:10:00,57.4,52.2,29.72,ESE,112,0.0,0.0,83,0.00,,,0.00,WUHU21623XXSP,2013-09-22 09:10:00,
2013-09-22 02:15:00,57.4,52.2,29.72,South,180,0.9,2.9,83,0.00,,,0.00,WUHU21623XXSP,2013-09-22 09:15:00,
2013-09-22 02:20:00,57.4,52.2,29.72,SE,135,0.0,3.6,83,0.00,,,0.00,WUHU21623XXSP,2013-09-22 09:20:00,
2013-09-22 02:25:00,57.4,52.2,29.72,SE,135,0.0,3.6,83,0.00,,,0.00,WUHU21623XXSP,2013-09-22 09:25:00,
2013-09-22 02:30:00,57.4,52.2,29.71,SE,135,0.4,3.6,83,0.00,,,0.00,WUHU21623XXSP,2013-09-22 09:30:00,
2013-09-22 02:35:00,57.6,52.4,29.71,SE,135,0.0,3.6,83,0.00,,,0.00,WUHU21623XXSP,2013-09-22 09:35:00,
2013-09-22 02:40:00,57.4,52.2,29.71,SSE,157,2.5,2.7,83,0.00,,,0.00,WUHU21623XXSP,2013-09-22 09:40:00,
2013-09-22 02:45:00,57.4,52.2,29.71,ESE,112,0.7,4.7,83,0.00,,,0.00,WUHU21623XXSP,2013-09-22 09:45:00,
2013-09-22 02:50:00,57.4,52.2,29.71,South,180,0.0,4.7,83,0.00,,,0.00,WUHU21623XXSP,2013-09-22 09:50:00,
2013-09-22 02:55:00,57.4,52.2,29.71,ENE,67,0.0,4.0,83,0.00,,,0.00,WUHU21623XXSP,2013-09-22 09:55:00,
2013-09-22 03:00:00,57.4,52.2,29.70,SSE,157,0.0,5.4,83,0.00,,,0.00,WUHU21623XXSP,2013-09-22 10:00:00,
2013-09-22 03:05:00,57.4,52.2,29.70,SSE,157,0.0,5.4,83,0.00,,,0.00,WUHU21623XXSP,2013-09-22 10:05:00,
2013-09-22 03:10:00,57.4,52.2,29.70,SE,135,0.0,0.0,83,0.00,,,0.00,WUHU21623XXSP,2013-09-22 10:10:00,
2013-09-22 03:15:00,57.4,52.2,29.70,SSE,157,0.0,1.6,83,0.00,,,0.00,WUHU21623XXSP,2013-09-22 10:15:00,
2013-09-22 03:20:00,57.4,52.2,29.70,SE,135,0.0,1.6,83,0.00,,,0.00,WUHU21623XXSP,2013-09-22 10:20:00,
2013-09-22 03:25:00,57.4,52.2,29.70,SE,135,0.0,4.5,83,0.00,,,0.00,WUHU21623XXSP,2013-09-22 10:25:00,
2013-09-22 03:30:00,57.4,52.6,29.70,SE,135,0.0,4.5,84,0.00,,,0.00,WUHU21623XXSP,2013-09-22 10:30:00,
2013-09-22 03:35:00,57.4,52.6,29.70,South,180,0.0,4.0,84,0.00,,,0.00,WUHU21623XXSP,2013-09-22 10:35:00,
2013-09-22 03:40:00,57.4,52.6,29.70,SSE,157,0.0,2.9,84,0.00,,,0.00,WUHU21623XXSP,2013-09-22 10:40:00,
2013-09-22 03:45:00,57.4,52.6,29.70,ENE,67,0.0,2.9,84,0.00,,,0.00,WUHU21623XXSP,2013-09-22 10:45:00,
2013-09-22 03:50:00,57.4,52.6,29.70,SSE,157,0.0,2.7,84,0.00,,,0.00,WUHU21623XXSP,2013-09-22 10:50:00,
2013-09-22 03:55:00,57.4,52.6,29.69,SE,135,0.0,2.0,84,0.00,,,0.00,WUHU21623XXSP,2013-09-22 10:55:00,
2013-09-22 04:00:00,57.4,52.6,29.69,SE,135,0.2,2.0,84,0.00,,,0.00,WUHU21623XXSP,2013-09-22 11:00:00,
2013-09-22 04:05:00,57.4,52.6,29.69,SE,135,0.2,2.0,84,0.00,,,0.00,WUHU21623XXSP,2013-09-22 11:05:00,
2013-09-22 04:10:00,57.4,52.6,29.70,SE,135,0.0,0.2,84,0.00,,,0.00,WUHU21623XXSP,2013-09-22 11:10:00,
2013-09-22 04:15:00,57.4,52.6,29.70,SSE,157,0.0,6.3,84,0.00,,,0.00,WUHU21623XXSP,2013-09-22 11:15:00,
2013-09-22 04:20:00,57.4,52.6,29.70,South,180,1.8,7.2,84,0.00,,,0.00,WUHU21623XXSP,2013-09-22 11:20:00,
2013-09-22 04:25:00,57.4,52.6,29.69,East,90,0.0,7.4,84,0.00,,,0.00,WUHU21623XXSP,2013-09-22 11:25:00,
2013-09-22 04:30:00,57.4,52.6,29.70,South,180,3.6,7.4,84,0.00,,,0.00,WUHU21623XXSP,2013-09-22 11:30:00,
2013-09-22 04:35:00,57.4,52.6,29.69,SSE,157,4.3,7.2,84,0.00,,,0.00,WUHU21623XXSP,2013-09-22 11:35:00,
2013-09-22 04:40:00,57.4,52.6,29.69,SSE,157,4.0,9.2,84,0.00,,,0.00,WUHU21623XXSP,2013-09-22 11:40:00,
2013-09-22 04:45:00,57.4,52.6,29.69,South,180,2.7,9.2,84,0.00,,,0.00,WUHU21623XXSP,2013-09-22 11:45:00,
2013-09-22 04:50:00,57.4,52.6,29.69,SSE,157,1.3,9.8,84,0.00,,,0.00,WUHU21623XXSP,2013-09-22 11:50:00,
2013-09-22 04:55:00,57.4,52.6,29.69,ESE,112,2.7,9.8,84,0.00,,,0.00,WUHU21623XXSP,2013-09-22 11:55:00,
2013-09-22 05:00:00,57.4,52.6,29.69,SSE,157,0.0,7.4,84,0.00,,,0.00,WUHU21623XXSP,2013-09-22 12:00:00,
2013-09-22 05:05:00,57.4,52.6,29.69,SSE,157,0.0,6.3,84,0.00,,,0.00,WUHU21623XXSP,2013-09-22 12:05:00,
2013-09-22 05:10:00,57.2,52.4,29.70,SE,135,0.0,3.8,84,0.00,,,0.00,WUHU21623XXSP,2013-09-22 12:10:00,
2013-09-22 05:15:00,57.2,52.4,29.69,SSE,157,0.9,4.3,84,0.00,,,0.00,WUHU21623XXSP,2013-09-22 12:15:00,
2013-09-22 05:20:00,57.2,52.4,29.69,South,180,2.7,9.2,84,0.00,,,0.00,WUHU21623XXSP,2013-09-22 12:20:00,
2013-09-22 05:25:00,57.0,52.2,29.69,SE,135,3.1,9.2,84,0.00,,,0.00,WUHU21623XXSP,2013-09-22 12:25:00,
2013-09-22 05:30:00,57.0,52.2,29.68,SSE,157,0.0,7.2,84,0.00,,,0.00,WUHU21623XXSP,2013-09-22 12:30:00,
2013-09-22 05:35:00,57.0,52.2,29.69,SSE,157,1.1,4.0,84,0.00,,,0.00,WUHU21623XXSP,2013-09-22 12:35:00,
2013-09-22 05:40:00,57.0,52.2,29.69,SSE,157,0.0,4.0,84,0.00,,,0.00,WUHU21623XXSP,2013-09-22 12:40:00,
2013-09-22 05:46:00,57.0,52.2,29.69,SSE,157,0.0,6.3,84,0.00,,,0.00,WUHU21623XXSP,2013-09-22 12:46:00,
2013-09-22 05:51:00,57.0,52.2,29.69,SE,135,2.5,7.2,84,0.00,,,0.00,WUHU21623XXSP,2013-09-22 12:51:00,
2013-09-22 05:56:00,57.0,52.2,29.69,SE,135,0.0,7.2,84,0.00,,,0.00,WUHU21623XXSP,2013-09-22 12:56:00,
2013-09-22 06:01:00,57.0,52.2,29.69,SE,135,0.0,4.7,84,0.00,,,0.00,WUHU21623XXSP,2013-09-22 13:01:00,
2013-09-22 06:06:00,57.0,52.2,29.69,SE,135,0.0,4.7,84,0.00,,,0.00,WUHU21623XXSP,2013-09-22 13:06:00,
2013-09-22 06:11:00,56.8,52.0,29.69,ESE,112,0.0,7.8,84,0.00,,,0.00,WUHU21623XXSP,2013-09-22 13:11:00,
2013-09-22 06:16:00,56.8,52.0,29.69,SE,135,0.0,7.8,84,0.00,,,0.00,WUHU21623XXSP,2013-09-22 13:16:00,
2013-09-22 06:21:00,56.8,52.0,29.69,SSE,157,0.0,8.1,84,0.00,,,0.00,WUHU21623XXSP,2013-09-22 13:21:00,
2013-09-22 06:26:00,56.7,51.8,29.69,South,180,0.4,8.1,84,0.00,,,0.00,WUHU21623XXSP,2013-09-22 13:26:00,
2013-09-22 06:31:00,56.5,52.0,29.69,SE,135,2.0,6.7,85,0.00,,,0.00,WUHU21623XXSP,2013-09-22 13:31:00,
2013-09-22 06:36:00,56.5,52.0,29.70,SE,135,7.2,9.8,85,0.00,,,0.00,WUHU21623XXSP,2013-09-22 13:36:00,
2013-09-22 06:41:00,56.5,52.0,29.69,South,180,5.6,9.8,85,0.00,,,0.00,WUHU21623XXSP,2013-09-22 13:41:00,
2013-09-22 06:46:00,56.3,51.8,29.69,SSE,157,0.0,9.2,85,0.00,,,0.00,WUHU21623XXSP,2013-09-22 13:46:00,
2013-09-22 06:51:00,56.3,51.8,29.70,SSW,202,2.2,9.2,85,0.00,,,0.00,WUHU21623XXSP,2013-09-22 13:51:00,
2013-09-22 06:56:00,56.1,51.6,29.69,SSE,157,0.0,7.4,85,0.00,,,0.00,WUHU21623XXSP,2013-09-22 13:56:00,
2013-09-22 07:01:00,56.1,51.6,29.70,SE,135,1.3,6.7,85,0.00,,,0.00,WUHU21623XXSP,2013-09-22 14:01:00,
2013-09-22 07:06:00,56.1,51.6,29.70,SSW,202,1.3,6.0,85,0.00,,,0.00,WUHU21623XXSP,2013-09-22 14:06:00,
2013-09-22 07:11:00,55.9,51.4,29.70,SSE,157,3.6,4.3,85,0.00,,,0.00,WUHU21623XXSP,2013-09-22 14:11:00,
2013-09-22 07:16:00,55.9,51.4,29.70,South,180,0.0,4.3,85,0.00,,,0.00,WUHU21623XXSP,2013-09-22 14:16:00,
2013-09-22 07:21:00,55.9,51.4,29.70,SSE,157,2.0,8.3,85,0.00,,,0.00,WUHU21623XXSP,2013-09-22 14:21:00,
2013-09-22 07:26:00,55.8,51.3,29.69,South,180,4.9,8.3,85,0.00,,,0.00,WUHU21623XXSP,2013-09-22 14:26:00,
2013-09-22 07:31:00,55.8,51.3,29.70,SE,135,0.0,6.7,85,0.00,,,0.00,WUHU21623XXSP,2013-09-22 14:31:00,
2013-09-22 07:36:00,55.8,51.3,29.70,SE,135,3.6,6.9,85,0.00,,,0.00,WUHU21623XXSP,2013-09-22 14:36:00,
2013-09-22 07:41:00,55.8,51.3,29.70,SSE,157,6.0,8.1,85,0.00,,,0.00,WUHU21623XXSP,2013-09-22 14:41:00,
2013-09-22 07:46:00,55.8,51.3,29.70,SSE,157,1.6,8.9,85,0.00,,,0.00,WUHU21623XXSP,2013-09-22 14:46:00,
2013-09-22 07:51:00,55.8,50.9,29.70,SE,135,4.5,8.9,84,0.00,,,0.00,WUHU21623XXSP,2013-09-22 14:51:00,
2013-09-22 07:56:00,55.6,50.8,29.70,SE,135,5.6,8.9,84,0.00,,,0.00,WUHU21623XXSP,2013-09-22 14:56:00,
2013-09-22 08:01:00,55.6,50.8,29.70,SSE,157,2.7,8.3,84,0.00,,,0.00,WUHU21623XXSP,2013-09-22 15:01:00,
2013-09-22 08:06:00,55.6,50.4,29.70,SE,135,2.2,7.4,83,0.00,,,0.00,WUHU21623XXSP,2013-09-22 15:06:00,
2013-09-22 08:11:00,55.6,50.4,29.70,SSE,157,4.9,6.3,83,0.00,,,0.00,WUHU21623XXSP,2013-09-22 15:11:00,
2013-09-22 08:16:00,55.6,50.4,29.70,ESE,112,1.3,9.6,83,0.02,,,0.02,WUHU21623XXSP,2013-09-22 15:16:00,
2013-09-22 08:21:00,55.4,50.6,29.70,South,180,0.0,9.6,84,0.02,,,0.02,WUHU21623XXSP,2013-09-22 15:21:00,
2013-09-22 08:26:00,55.2,50.4,29.70,SSE,157,0.0,6.0,84,0.02,,,0.02,WUHU21623XXSP,2013-09-22 15:26:00,
2013-09-22 08:31:00,55.2,50.4,29.70,SE,135,0.0,6.0,84,0.02,,,0.02,WUHU21623XXSP,2013-09-22 15:31:00,
2013-09-22 08:36:00,55.0,50.6,29.69,SSE,157,2.0,3.6,85,0.04,,,0.04,WUHU21623XXSP,2013-09-22 15:36:00,
2013-09-22 08:41:00,55.0,50.6,29.69,ENE,67,0.0,5.6,85,0.04,,,0.04,WUHU21623XXSP,2013-09-22 15:41:00,
2013-09-22 08:46:00,54.9,50.4,29.69,SE,135,0.7,6.3,85,0.04,,,0.04,WUHU21623XXSP,2013-09-22 15:46:00,
2013-09-22 08:51:00,54.9,50.7,29.69,ESE,112,0.0,6.3,86,0.04,,,0.04,WUHU21623XXSP,2013-09-22 15:51:00,
2013-09-22 08:56:00,54.9,50.7,29.69,SE,135,0.0,4.7,86,0.04,,,0.04,WUHU21623XXSP,2013-09-22 15:56:00,
2013-09-22 09:01:00,54.9,50.7,29.69,SSE,157,1.3,5.4,86,0.04,,,0.04,WUHU21623XXSP,2013-09-22 16:01:00,
2013-09-22 09:06:00,54.7,50.5,29.69,ESE,112,0.7,6.3,86,0.04,,,0.04,WUHU21623XXSP,2013-09-22 16:06:00,
2013-09-22 09:11:00,54.9,50.7,29.68,SE,135,1.1,6.3,86,0.04,,,0.04,WUHU21623XXSP,2013-09-22 16:11:00,
2013-09-22 09:16:00,55.0,50.9,29.68,SE,135,0.0,4.0,86,0.02,,,0.04,WUHU21623XXSP,2013-09-22 16:16:00,
2013-09-22 09:21:00,55.0,50.9,29.68,SSE,157,0.7,5.4,86,0.02,,,0.04,WUHU21623XXSP,2013-09-22 16:21:00,
2013-09-22 09:26:00,55.0,50.9,29.68,SSE,157,0.0,5.4,86,0.02,,,0.04,WUHU21623XXSP,2013-09-22 16:26:00,
2013-09-22 09:31:00,55.2,51.0,29.68,SE,135,3.8,3.8,86,0.02,,,0.04,WUHU21623XXSP,2013-09-22 16:31:00,
2013-09-22 09:36:00,55.6,51.4,29.67,SSE,157,3.4,4.0,86,0.00,,,0.04,WUHU21623XXSP,2013-09-22 16:36:00,
2013-09-22 09:41:00,55.8,51.6,29.67,SSE,157,0.0,4.0,86,0.00,,,0.04,WUHU21623XXSP,2013-09-22 16:41:00,
2013-09-22 09:46:00,55.9,51.8,29.67,SE,135,2.0,6.7,86,0.00,,,0.04,WUHU21623XXSP,2013-09-22 16:46:00,
2013-09-22 09:51:00,56.1,51.6,29.67,SE,135,5.6,8.3,85,0.00,,,0.04,WUHU21623XXSP,2013-09-22 16:51:00,
2013-09-22 09:56:00,56.3,51.8,29.67,SE,135,0.0,8.3,85,0.00,,,0.04,WUHU21623XXSP,2013-09-22 16:56:00,
2013-09-22 10:01:00,56.8,52.0,29.66,SE,135,3.4,7.4,84,0.00,,,0.04,WUHU21623XXSP,2013-09-22 17:01:00,
2013-09-22 10:06:00,57.0,51.9,29.66,SSE,157,0.0,7.4,83,0.00,,,0.04,WUHU21623XXSP,2013-09-22 17:06:00,
2013-09-22 10:11:00,57.4,52.2,29.66,SSE,157,2.5,7.4,83,0.00,,,0.04,WUHU21623XXSP,2013-09-22 17:11:00,
2013-09-22 10:16:00,57.6,52.4,29.65,ESE,112,0.2,8.3,83,0.00,,,0.04,WUHU21623XXSP,2013-09-22 17:16:00,
2013-09-22 10:21:00,57.9,52.4,29.65,SSE,157,0.0,8.3,82,0.00,,,0.04,WUHU21623XXSP,2013-09-22 17:21:00,
2013-09-22 10:26:00,58.3,52.8,29.64,SSE,157,2.5,6.9,82,0.00,,,0.04,WUHU21623XXSP,2013-09-22 17:26:00,
2013-09-22 10:31:00,58.6,52.8,29.64,SSE,157,3.8,6.9,81,0.00,,,0.04,WUHU21623XXSP,2013-09-22 17:31:00,
2013-09-22 10:36:00,58.8,52.3,29.64,SE,135,0.0,8.1,79,0.00,,,0.04,WUHU21623XXSP,2013-09-22 17:36:00,
2013-09-22 10:42:00,58.8,52.3,29.64,SSE,157,4.5,9.4,79,0.00,,,0.04,WUHU21623XXSP,2013-09-22 17:42:00,
2013-09-22 10:47:00,58.8,52.0,29.64,ENE,67,0.4,9.4,78,0.00,,,0.04,WUHU21623XXSP,2013-09-22 17:47:00,
2013-09-22 10:52:00,58.8,51.6,29.64,SE,135,0.0,6.5,77,0.00,,,0.04,WUHU21623XXSP,2013-09-22 17:52:00,
2013-09-22 10:57:00,58.8,51.3,29.63,SSE,157,4.5,6.7,76,0.00,,,0.04,WUHU21623XXSP,2013-09-22 17:57:00,
2013-09-22 11:02:00,58.8,51.3,29.63,SE,135,0.0,6.7,76,0.00,,,0.04,WUHU21623XXSP,2013-09-22 18:02:00,
2013-09-22 11:07:00,58.8,50.9,29.63,ENE,67,0.0,9.6,75,0.00,,,0.04,WUHU21623XXSP,2013-09-22 18:07:00,
2013-09-22 11:12:00,58.8,50.9,29.63,South,180,5.1,9.6,75,0.00,,,0.04,WUHU21623XXSP,2013-09-22 18:12:00,
2013-09-22 11:17:00,58.8,50.5,29.64,SSE,157,3.4,10.7,74,0.00,,,0.04,WUHU21623XXSP,2013-09-22 18:17:00,
2013-09-22 11:22:00,58.8,50.2,29.63,South,180,3.1,10.7,73,0.00,,,0.04,WUHU21623XXSP,2013-09-22 18:22:00,
2013-09-22 11:27:00,58.8,50.2,29.63,SSE,157,3.4,7.2,73,0.00,,,0.04,WUHU21623XXSP,2013-09-22 18:27:00,
2013-09-22 11:32:00,58.8,50.2,29.63,SE,135,0.0,5.8,73,0.00,,,0.04,WUHU21623XXSP,2013-09-22 18:32:00,
2013-09-22 11:37:00,58.8,50.2,29.63,SSE,157,0.0,5.1,73,0.00,,,0.04,WUHU21623XXSP,2013-09-22 18:37:00,
2013-09-22 11:42:00,58.8,49.8,29.63,SSE,157,7.2,7.6,72,0.00,,,0.04,WUHU21623XXSP,2013-09-22 18:42:00,
2013-09-22 11:47:00,58.8,49.8,29.62,SSE,157,6.3,7.6,72,0.00,,,0.04,WUHU21623XXSP,2013-09-22 18:47:00,
2013-09-22 11:52:00,58.8,49.8,29.62,SE,135,4.3,6.3,72,0.00,,,0.04,WUHU21623XXSP,2013-09-22 18:52:00,
2013-09-22 11:57:00,58.8,49.5,29.62,SE,135,0.7,6.3,71,0.00,,,0.04,WUHU21623XXSP,2013-09-22 18:57:00,
2013-09-22 12:02:00,58.8,49.8,29.62,SSE,157,3.4,7.8,72,0.00,,,0.04,WUHU21623XXSP,2013-09-22 19:02:00,
2013-09-22 12:07:00,58.8,49.5,29.62,South,180,9.6,9.6,71,0.00,,,0.04,WUHU21623XXSP,2013-09-22 19:07:00,
2013-09-22 12:12:00,58.8,49.5,29.62,South,180,2.5,12.3,71,0.00,,,0.04,WUHU21623XXSP,2013-09-22 19:12:00,
2013-09-22 12:17:00,58.8,49.5,29.61,SE,135,0.0,12.3,71,0.00,,,0.04,WUHU21623XXSP,2013-09-22 19:17:00,
2013-09-22 12:22:00,58.8,49.5,29.60,SSE,157,7.6,7.6,71,0.00,,,0.04,WUHU21623XXSP,2013-09-22 19:22:00,
2013-09-22 12:27:00,58.6,49.3,29.60,SSE,157,6.0,8.1,71,0.00,,,0.04,WUHU21623XXSP,2013-09-22 19:27:00,
2013-09-22 12:32:00,58.6,49.3,29.60,SE,135,2.7,8.1,71,0.00,,,0.04,WUHU21623XXSP,2013-09-22 19:32:00,
2013-09-22 12:37:00,58.3,49.3,29.60,SSE,157,0.2,6.3,72,0.00,,,0.04,WUHU21623XXSP,2013-09-22 19:37:00,
2013-09-22 12:42:00,57.7,49.5,29.60,South,180,0.0,6.0,74,0.02,,,0.06,WUHU21623XXSP,2013-09-22 19:42:00,
2013-09-22 12:47:00,57.4,49.5,29.60,SSE,157,0.0,6.0,75,0.02,,,0.06,WUHU21623XXSP,2013-09-22 19:47:00,
2013-09-22 12:53:00,57.0,49.5,29.61,South,180,0.0,5.6,76,0.02,,,0.06,WUHU21623XXSP,2013-09-22 19:53:00,
2013-09-22 12:58:00,56.8,49.6,29.62,SSE,157,0.0,5.4,77,0.02,,,0.06,WUHU21623XXSP,2013-09-22 19:58:00,
2013-09-22 13:03:00,56.5,49.6,29.62,SE,135,0.0,5.4,78,0.04,,,0.08,WUHU21623XXSP,2013-09-22 20:03:00,
2013-09-22 13:08:00,56.3,49.8,29.61,SE,135,0.0,4.5,79,0.04,,,0.08,WUHU21623XXSP,2013-09-22 20:08:00,
2013-09-22 13:13:00,56.1,50.0,29.61,SE,135,1.3,4.5,80,0.06,,,0.10,WUHU21623XXSP,2013-09-22 20:13:00,
2013-09-22 13:18:00,55.9,50.1,29.61,SSE,157,0.0,3.8,81,0.06,,,0.10,WUHU21623XXSP,2013-09-22 20:18:00,
2013-09-22 13:23:00,55.9,50.5,29.61,SSE,157,3.6,7.8,82,0.06,,,0.10,WUHU21623XXSP,2013-09-22 20:23:00,
2013-09-22 13:28:00,55.8,50.3,29.61,SSW,202,0.0,7.8,82,0.08,,,0.12,WUHU21623XXSP,2013-09-22 20:28:00,
2013-09-22 13:33:00,55.6,50.1,29.61,SSW,202,4.3,4.5,82,0.08,,,0.12,WUHU21623XXSP,2013-09-22 20:33:00,
2013-09-22 13:38:00,55.4,49.9,29.61,ESE,112,0.4,5.8,82,0.08,,,0.15,WUHU21623XXSP,2013-09-22 20:38:00,
2013-09-22 13:43:00,55.2,50.1,29.61,SE,135,1.3,6.3,83,0.08,,,0.15,WUHU21623XXSP,2013-09-22 20:43:00,
2013-09-22 13:49:00,55.2,50.1,29.61,South,180,1.6,6.3,83,0.08,,,0.15,WUHU21623XXSP,2013-09-22 20:49:00,
2013-09-22 13:53:00,55.2,50.1,29.62,SSE,157,0.0,3.4,83,0.08,,,0.15,WUHU21623XXSP,2013-09-22 20:53:00,
2013-09-22 13:59:00,55.2,50.4,29.62,South,180,0.0,3.1,84,0.06,,,0.15,WUHU21623XXSP,2013-09-22 20:59:00,
2013-09-22 14:04:00,55.2,50.4,29.61,SSE,157,1.1,2.0,84,0.08,,,0.17,WUHU21623XXSP,2013-09-22 21:04:00,
2013-09-22 14:09:00,55.2,50.4,29.61,SE,135,0.0,2.5,84,0.06,,,0.17,WUHU21623XXSP,2013-09-22 21:09:00,
2013-09-22 14:14:00,55.2,50.7,29.61,SSW,202,1.8,4.3,85,0.06,,,0.17,WUHU21623XXSP,2013-09-22 21:14:00,
2013-09-22 14:19:00,55.2,50.7,29.61,SSE,157,1.3,6.0,85,0.06,,,0.17,WUHU21623XXSP,2013-09-22 21:19:00,
2013-09-22 14:24:00,55.4,50.9,29.62,SE,135,0.0,6.0,85,0.04,,,0.17,WUHU21623XXSP,2013-09-22 21:24:00,
2013-09-22 14:29:00,55.4,50.9,29.62,SE,135,0.0,3.1,85,0.04,,,0.17,WUHU21623XXSP,2013-09-22 21:29:00,
2013-09-22 14:34:00,55.4,50.9,29.62,South,180,0.0,3.1,85,0.02,,,0.17,WUHU21623XXSP,2013-09-22 21:34:00,
2013-09-22 14:39:00,55.6,51.1,29.62,SSE,157,2.0,2.7,85,0.02,,,0.17,WUHU21623XXSP,2013-09-22 21:39:00,
2013-09-22 14:44:00,55.9,51.8,29.62,SSE,157,1.8,4.9,86,0.02,,,0.17,WUHU21623XXSP,2013-09-22 21:44:00,
2013-09-22 14:49:00,56.1,51.9,29.62,South,180,4.7,11.0,86,0.02,,,0.17,WUHU21623XXSP,2013-09-22 21:49:00,
2013-09-22 14:54:00,56.8,52.7,29.62,SE,135,0.0,11.0,86,0.02,,,0.17,WUHU21623XXSP,2013-09-22 21:54:00,
2013-09-22 14:59:00,57.7,53.6,29.61,ENE,67,3.8,8.7,86,0.00,,,0.17,WUHU21623XXSP,2013-09-22 21:59:00,
2013-09-22 15:04:00,58.6,54.1,29.62,SSE,157,0.7,8.7,85,0.00,,,0.17,WUHU21623XXSP,2013-09-22 22:04:00,
2013-09-22 15:09:00,58.8,53.7,29.62,SE,135,4.0,11.0,83,0.00,,,0.17,WUHU21623XXSP,2013-09-22 22:09:00,
2013-09-22 15:14:00,58.8,53.0,29.61,SSE,157,8.9,19.2,81,0.00,,,0.17,WUHU21623XXSP,2013-09-22 22:14:00,
2013-09-22 15:19:00,58.8,53.0,29.61,SE,135,0.0,19.2,81,0.00,,,0.17,WUHU21623XXSP,2013-09-22 22:19:00,
2013-09-22 15:24:00,58.8,53.0,29.62,South,180,5.4,9.6,81,0.00,,,0.17,WUHU21623XXSP,2013-09-22 22:24:00,
2013-09-22 15:29:00,59.0,53.2,29.62,South,180,0.0,9.6,81,0.00,,,0.17,WUHU21623XXSP,2013-09-22 22:29:00,
2013-09-22 15:34:00,59.2,53.4,29.63,SSE,157,1.8,5.4,81,0.00,,,0.17,WUHU21623XXSP,2013-09-22 22:34:00,
2013-09-22 15:39:00,59.4,53.6,29.63,South,180,0.0,5.4,81,0.00,,,0.17,WUHU21623XXSP,2013-09-22 22:39:00,
2013-09-22 15:44:00,59.5,53.4,29.63,SSW,202,0.0,5.4,80,0.00,,,0.17,WUHU21623XXSP,2013-09-22 22:44:00,
2013-09-22 15:49:00,59.7,53.6,29.63,SSW,202,0.0,5.1,80,0.00,,,0.17,WUHU21623XXSP,2013-09-22 22:49:00,
2013-09-22 15:54:00,59.7,53.6,29.62,SE,135,1.6,5.1,80,0.00,,,0.17,WUHU21623XXSP,2013-09-22 22:54:00,
2013-09-22 15:59:00,60.1,54.0,29.62,SSE,157,3.1,4.0,80,0.00,,,0.17,WUHU21623XXSP,2013-09-22 22:59:00,
2013-09-22 16:04:00,60.1,54.0,29.62,SE,135,1.8,5.4,80,0.00,,,0.17,WUHU21623XXSP,2013-09-22 23:04:00,
2013-09-22 16:09:00,60.1,54.0,29.63,SSE,157,0.0,5.4,80,0.00,,,0.17,WUHU21623XXSP,2013-09-22 23:09:00,
2013-09-22 16:14:00,60.1,54.0,29.63,SE,135,4.5,8.5,80,0.00,,,0.17,WUHU21623XXSP,2013-09-22 23:14:00,
2013-09-22 16:19:00,60.1,53.6,29.63,SSW,202,3.1,8.5,79,0.00,,,0.17,WUHU21623XXSP,2013-09-22 23:19:00,
2013-09-22 16:24:00,60.1,53.6,29.63,SSW,202,2.2,6.0,79,0.00,,,0.17,WUHU21623XXSP,2013-09-22 23:24:00,
2013-09-22 16:29:00,60.1,53.6,29.63,South,180,0.4,6.3,79,0.00,,,0.17,WUHU21623XXSP,2013-09-22 23:29:00,
2013-09-22 16:34:00,59.9,53.4,29.63,SSE,157,1.1,6.3,79,0.00,,,0.17,WUHU21623XXSP,2013-09-22 23:34:00,
2013-09-22 16:39:00,59.9,53.4,29.63,SSE,157,0.0,6.0,79,0.00,,,0.17,WUHU21623XXSP,2013-09-22 23:39:00,
2013-09-22 16:44:00,59.9,53.4,29.64,SSW,202,0.0,4.0,79,0.00,,,0.17,WUHU21623XXSP,2013-09-22 23:44:00,
2013-09-22 16:49:00,59.9,53.8,29.64,SSE,157,1.8,2.2,80,0.00,,,0.17,WUHU21623XXSP,2013-09-22 23:49:00,
2013-09-22 16:54:00,59.9,53.8,29.64,SSE,157,3.4,4.5,80,0.00,,,0.17,WUHU21623XXSP,2013-09-22 23:54:00,
2013-09-22 16:59:00,59.9,53.8,29.64,SE,135,0.0,4.5,80,0.00,,,0.17,WUHU21623XXSP,2013-09-22 23:59:00,
2013-09-22 17:04:00,60.1,54.0,29.63,SSE,157,0.0,2.9,80,0.00,,,0.17,WUHU21623XXSP,2013-09-23 00:04:00,
2013-09-22 17:10:00,60.1,54.0,29.64,SSE,157,1.1,2.2,80,0.00,,,0.17,WUHU21623XXSP,2013-09-23 00:10:00,
2013-09-22 17:15:00,60.1,54.0,29.64,SW,225,3.4,9.4,80,0.00,,,0.17,WUHU21623XXSP,2013-09-23 00:15:00,
2013-09-22 17:20:00,59.9,53.8,29.64,SSW,202,0.0,9.4,80,0.00,,,0.17,WUHU21623XXSP,2013-09-23 00:20:00,
2013-09-22 17:25:00,59.9,53.8,29.64,South,180,0.0,6.3,80,0.00,,,0.17,WUHU21623XXSP,2013-09-23 00:25:00,
2013-09-22 17:30:00,59.9,53.8,29.64,WSW,247,0.0,0.0,80,0.00,,,0.17,WUHU21623XXSP,2013-09-23 00:30:00,
2013-09-22 17:35:00,59.9,53.8,29.64,SSE,157,0.0,6.7,80,0.00,,,0.17,WUHU21623XXSP,2013-09-23 00:35:00,
2013-09-22 17:40:00,59.9,53.8,29.64,WSW,247,0.0,6.7,80,0.00,,,0.17,WUHU21623XXSP,2013-09-23 00:40:00,
2013-09-22 17:45:00,60.1,54.0,29.63,SSE,157,0.0,2.9,80,0.00,,,0.17,WUHU21623XXSP,2013-09-23 00:45:00,
2013-09-22 17:50:00,60.1,54.0,29.64,SSE,157,0.0,4.9,80,0.00,,,0.17,WUHU21623XXSP,2013-09-23 00:50:00,
2013-09-22 17:55:00,60.1,54.0,29.64,SSE,157,1.8,4.9,80,0.00,,,0.17,WUHU21623XXSP,2013-09-23 00:55:00,
2013-09-22 18:01:00,60.3,54.1,29.64,SSE,157,4.0,8.1,80,0.00,,,0.17,WUHU21623XXSP,2013-09-23 01:01:00,
2013-09-22 18:06:00,60.1,54.0,29.65,South,180,2.5,8.1,80,0.00,,,0.17,WUHU21623XXSP,2013-09-23 01:06:00,
2013-09-22 18:11:00,60.1,54.0,29.64,South,180,0.0,6.7,80,0.00,,,0.17,WUHU21623XXSP,2013-09-23 01:11:00,
2013-09-22 18:16:00,60.1,54.0,29.65,South,180,0.0,2.9,80,0.00,,,0.17,WUHU21623XXSP,2013-09-23 01:16:00,
2013-09-22 18:21:00,59.9,53.8,29.65,SE,135,0.0,2.7,80,0.00,,,0.17,WUHU21623XXSP,2013-09-23 01:21:00,
2013-09-22 18:26:00,59.9,53.8,29.65,SSE,157,1.8,6.7,80,0.00,,,0.17,WUHU21623XXSP,2013-09-23 01:26:00,
2013-09-22 18:31:00,59.7,53.6,29.65,SE,135,0.0,6.7,80,0.00,,,0.17,WUHU21623XXSP,2013-09-23 01:31:00,
2013-09-22 18:36:00,59.5,53.4,29.65,SSE,157,0.9,5.1,80,0.00,,,0.17,WUHU21623XXSP,2013-09-23 01:36:00,
2013-09-22 18:41:00,59.4,53.2,29.65,SE,135,0.0,5.1,80,0.00,,,0.17,WUHU21623XXSP,2013-09-23 01:41:00,
2013-09-22 18:46:00,59.2,53.4,29.65,SSE,157,0.0,3.8,81,0.00,,,0.17,WUHU21623XXSP,2013-09-23 01:46:00,
2013-09-22 18:51:00,59.0,53.2,29.65,SSE,157,0.0,3.8,81,0.00,,,0.17,WUHU21623XXSP,2013-09-23 01:51:00,
2013-09-22 18:56:00,58.8,53.0,29.65,SE,135,0.0,2.5,81,0.00,,,0.17,WUHU21623XXSP,2013-09-23 01:56:00,
2013-09-22 19:01:00,58.8,53.3,29.65,SE,135,0.0,2.5,82,0.00,,,0.17,WUHU21623XXSP,2013-09-23 02:01:00,
2013-09-22 19:06:00,58.8,53.3,29.66,SSE,157,0.0,2.2,82,0.00,,,0.17,WUHU21623XXSP,2013-09-23 02:06:00,
2013-09-22 19:11:00,58.8,53.3,29.65,SSE,157,0.0,2.5,82,0.00,,,0.17,WUHU21623XXSP,2013-09-23 02:11:00,
2013-09-22 19:16:00,58.6,53.5,29.66,SSE,157,0.0,2.5,83,0.00,,,0.17,WUHU21623XXSP,2013-09-23 02:16:00,
2013-09-22 19:21:00,58.6,53.5,29.66,ENE,67,0.0,2.2,83,0.00,,,0.17,WUHU21623XXSP,2013-09-23 02:21:00,
2013-09-22 19:26:00,58.5,53.3,29.66,SE,135,0.0,2.7,83,0.00,,,0.17,WUHU21623XXSP,2013-09-23 02:26:00,
2013-09-22 19:31:00,58.3,53.1,29.66,SSE,157,0.0,2.7,83,0.00,,,0.17,WUHU21623XXSP,2013-09-23 02:31:00,
2013-09-22 19:36:00,58.3,53.1,29.66,SSE,157,0.0,1.3,83,0.00,,,0.17,WUHU21623XXSP,2013-09-23 02:36:00,
2013-09-22 19:41:00,58.1,53.0,29.67,South,180,2.5,2.5,83,0.00,,,0.17,WUHU21623XXSP,2013-09-23 02:41:00,
2013-09-22 19:46:00,58.1,53.0,29.67,ESE,112,0.0,7.6,83,0.00,,,0.17,WUHU21623XXSP,2013-09-23 02:46:00,
2013-09-22 19:51:00,57.9,53.1,29.67,SSE,157,0.0,7.6,84,0.00,,,0.17,WUHU21623XXSP,2013-09-23 02:51:00,
2013-09-22 19:56:00,57.9,53.1,29.68,ENE,67,0.0,5.6,84,0.00,,,0.17,WUHU21623XXSP,2013-09-23 02:56:00,
2013-09-22 20:01:00,57.9,53.1,29.68,SE,135,0.0,3.4,84,0.00,,,0.17,WUHU21623XXSP,2013-09-23 03:01:00,
2013-09-22 20:06:00,57.9,53.1,29.68,SSE,157,0.0,2.0,84,0.00,,,0.17,WUHU21623XXSP,2013-09-23 03:06:00,
2013-09-22 20:11:00,57.9,53.1,29.68,SE,135,0.7,2.0,84,0.00,,,0.17,WUHU21623XXSP,2013-09-23 03:11:00,
2013-09-22 20:16:00,57.7,52.9,29.68,SSE,157,0.0,2.0,84,0.00,,,0.17,WUHU21623XXSP,2013-09-23 03:16:00,
2013-09-22 20:21:00,57.7,52.9,29.69,ESE,112,3.1,7.6,84,0.00,,,0.17,WUHU21623XXSP,2013-09-23 03:21:00,
2013-09-22 20:26:00,57.7,52.9,29.69,SSE,157,2.7,11.2,84,0.00,,,0.17,WUHU21623XXSP,2013-09-23 03:26:00,
2013-09-22 20:31:00,57.7,52.9,29.69,SSE,157,0.0,11.2,84,0.00,,,0.17,WUHU21623XXSP,2013-09-23 03:31:00,
2013-09-22 20:36:00,57.6,52.7,29.69,SE,135,0.7,6.0,84,0.00,,,0.17,WUHU21623XXSP,2013-09-23 03:36:00,
2013-09-22 20:41:00,57.6,52.7,29.69,SE,135,1.1,5.1,84,0.00,,,0.17,WUHU21623XXSP,2013-09-23 03:41:00,
2013-09-22 20:46:00,57.6,52.7,29.70,SE,135,1.3,7.6,84,0.00,,,0.17,WUHU21623XXSP,2013-09-23 03:46:00,
2013-09-22 20:51:00,57.6,52.7,29.70,South,180,0.9,7.6,84,0.00,,,0.17,WUHU21623XXSP,2013-09-23 03:51:00,
2013-09-22 20:56:00,57.4,52.2,29.70,SSE,157,0.0,6.0,83,0.00,,,0.17,WUHU21623XXSP,2013-09-23 03:56:00,
2013-09-22 21:01:00,57.4,52.2,29.70,SE,135,0.0,5.4,83,0.00,,,0.17,WUHU21623XXSP,2013-09-23 04:01:00,
2013-09-22 21:06:00,57.4,52.2,29.70,East,90,0.0,4.9,83,0.00,,,0.17,WUHU21623XXSP,2013-09-23 04:06:00,
2013-09-22 21:11:00,57.4,52.2,29.70,SSE,157,0.0,4.9,83,0.00,,,0.17,WUHU21623XXSP,2013-09-23 04:11:00,
2013-09-22 21:16:00,57.2,52.1,29.71,SSE,157,0.0,4.5,83,0.00,,,0.17,WUHU21623XXSP,2013-09-23 04:16:00,
2013-09-22 21:21:00,57.0,51.9,29.71,ESE,112,0.0,4.5,83,0.00,,,0.17,WUHU21623XXSP,2013-09-23 04:21:00,
2013-09-22 21:26:00,57.0,51.9,29.71,SE,135,0.0,5.8,83,0.00,,,0.17,WUHU21623XXSP,2013-09-23 04:26:00,
2013-09-22 21:31:00,57.0,51.9,29.71,SSE,157,2.2,5.8,83,0.00,,,0.17,WUHU21623XXSP,2013-09-23 04:31:00,
2013-09-22 21:36:00,57.0,51.9,29.71,SE,135,0.0,3.8,83,0.00,,,0.17,WUHU21623XXSP,2013-09-23 04:36:00,
2013-09-22 21:41:00,57.0,51.9,29.71,SSE,157,0.0,3.4,83,0.00,,,0.17,WUHU21623XXSP,2013-09-23 04:41:00,
2013-09-22 21:46:00,57.0,51.9,29.72,SSE,157,2.7,7.6,83,0.00,,,0.17,WUHU21623XXSP,2013-09-23 04:46:00,
2013-09-22 21:51:00,57.0,51.9,29.72,SSE,157,1.8,7.6,83,0.00,,,0.17,WUHU21623XXSP,2013-09-23 04:51:00,
2013-09-22 21:56:00,57.0,51.9,29.73,SE,135,6.7,6.7,83,0.00,,,0.17,WUHU21623XXSP,2013-09-23 04:56:00,
2013-09-22 22:01:00,57.0,51.5,29.73,SE,135,0.7,6.7,82,0.00,,,0.17,WUHU21623XXSP,2013-09-23 05:01:00,
2013-09-22 22:06:00,57.0,51.5,29.73,SE,135,0.0,5.4,82,0.00,,,0.17,WUHU21623XXSP,2013-09-23 05:06:00,
2013-09-22 22:11:00,57.0,51.5,29.73,SSE,157,0.0,5.6,82,0.00,,,0.17,WUHU21623XXSP,2013-09-23 05:11:00,
2013-09-22 22:16:00,56.8,51.7,29.72,SSE,157,4.3,5.6,83,0.00,,,0.17,WUHU21623XXSP,2013-09-23 05:16:00,
2013-09-22 22:22:00,56.8,51.4,29.73,SE,135,3.4,5.8,82,0.00,,,0.17,WUHU21623XXSP,2013-09-23 05:22:00,
2013-09-22 22:27:00,56.8,51.4,29.73,SE,135,0.0,6.5,82,0.00,,,0.17,WUHU21623XXSP,2013-09-23 05:27:00,
2013-09-22 22:32:00,56.8,51.4,29.73,SE,135,0.4,6.5,82,0.00,,,0.17,WUHU21623XXSP,2013-09-23 05:32:00,
2013-09-22 22:37:00,56.8,51.4,29.73,SSE,157,2.9,7.2,82,0.00,,,0.17,WUHU21623XXSP,2013-09-23 05:37:00,
2013-09-22 22:42:00,56.8,51.4,29.73,SE,135,0.0,7.2,82,0.00,,,0.17,WUHU21623XXSP,2013-09-23 05:42:00,
2013-09-22 22:47:00,56.8,51.4,29.73,ENE,67,0.0,8.3,82,0.00,,,0.17,WUHU21623XXSP,2013-09-23 05:47:00,
2013-09-22 22:52:00,56.8,51.4,29.74,SSE,157,0.9,8.3,82,0.00,,,0.17,WUHU21623XXSP,2013-09-23 05:52:00,
2013-09-22 22:57:00,56.8,51.4,29.74,SSE,157,2.7,11.2,82,0.00,,,0.17,WUHU21623XXSP,2013-09-23 05:57:00,
2013-09-22 23:02:00,56.8,51.4,29.74,SSE,157,3.1,11.2,82,0.00,,,0.17,WUHU21623XXSP,2013-09-23 06:02:00,
2013-09-22 23:07:00,56.8,51.4,29.74,ESE,112,0.0,6.7,82,0.00,,,0.17,WUHU21623XXSP,2013-09-23 06:07:00,
2013-09-22 23:12:00,56.8,51.4,29.74,South,180,4.9,9.4,82,0.00,,,0.17,WUHU21623XXSP,2013-09-23 06:12:00,
2013-09-22 23:17:00,56.8,51.4,29.74,South,180,0.4,9.4,82,0.00,,,0.17,WUHU21623XXSP,2013-09-23 06:17:00,
2013-09-22 23:22:00,56.8,51.4,29.74,SSE,157,0.0,6.3,82,0.00,,,0.17,WUHU21623XXSP,2013-09-23 06:22:00,
2013-09-22 23:27:00,56.8,51.7,29.74,East,90,1.3,6.3,83,0.00,,,0.17,WUHU21623XXSP,2013-09-23 06:27:00,
2013-09-22 23:32:00,56.8,51.7,29.74,South,180,4.0,8.3,83,0.00,,,0.17,WUHU21623XXSP,2013-09-23 06:32:00,
2013-09-22 23:37:00,56.8,51.7,29.74,SSW,202,2.0,8.3,83,0.00,,,0.17,WUHU21623XXSP,2013-09-23 06:37:00,
2013-09-22 23:42:00,56.8,51.7,29.74,ESE,112,2.2,8.9,83,0.00,,,0.17,WUHU21623XXSP,2013-09-23 06:42:00,
2013-09-22 23:47:00,56.8,51.7,29.74,SE,135,1.1,8.9,83,0.00,,,0.17,WUHU21623XXSP,2013-09-23 06:47:00,
2013-09-22 23:52:00,56.8,51.7,29.75,SSE,157,3.1,7.6,83,0.00,,,0.17,WUHU21623XXSP,2013-09-23 06:52:00,
2013-09-22 23:57:00,56.8,51.7,29.75,SE,135,0.7,7.6,83,0.00,,,0.17,WUHU21623XXSP,2013-09-23 06:57:00,